This is the latest recevied weather packets stored in our database for station/object KA8DUX-2. If no packets are shown the sender has not sent any weather packets the latest 1 day(s).
| Time | Temp. | Humidity | Pressure | Rain* | Wind** | Luminosity | Snow |
|---|---|---|---|---|---|---|---|
| 1778031201 | 7.22° C | 61% | 1007.6 hPa | 0 mm | 0 m/s | 0 W/m² | - |
| 1778030897 | 7.78° C | 63% | 1007.4 hPa | 0 mm | 0 m/s | 0 W/m² | - |
| 1778030595 | 7.78° C | 60% | 1007.6 hPa | 0 mm | 0 m/s | 0 W/m² | - |
| 1778030292 | 7.78° C | 58% | 1007.3 hPa | 0 mm | 0 m/s | 0 W/m² | - |
| 1778029988 | 7.78° C | 56% | 1007.3 hPa | 0 mm | 0 m/s | 0 W/m² | - |
| 1778029686 | 7.78° C | 56% | 1007.4 hPa | 0 mm | 0 m/s | 0 W/m² | - |
| 1778029384 | 8.33° C | 56% | 1007.4 hPa | 0 mm | 0 m/s | 0 W/m² | - |
| 1778029080 | 8.33° C | 54% | 1007.4 hPa | 0 mm | 0 m/s | 0 W/m² | - |
| 1778028777 | 8.89° C | 54% | 1007.5 hPa | 0 mm | 0 m/s | 0 W/m² | - |
| 1778028473 | 8.89° C | 53% | 1007.4 hPa | 0 mm | 0 m/s | 0 W/m² | - |
| 1778028171 | 8.89° C | 52% | 1007.4 hPa | 0 mm | 0 m/s | 3 W/m² | - |
| 1778027867 | 9.44° C | 51% | 1007.2 hPa | 0 mm | 0 m/s | 3 W/m² | - |
| 1778027563 | 9.44° C | 51% | 1007.2 hPa | 0 mm | 0 m/s | 5 W/m² | - |
| 1778027260 | 10° C | 51% | 1007.3 hPa | 0 mm | 0 m/s | 7 W/m² | - |
| 1778026956 | 10° C | 50% | 1007.3 hPa | 0 mm | 0 m/s | 10 W/m² | - |
| 1778026651 | 10° C | 51% | 1007.3 hPa | 0 mm | 0 m/s | 16 W/m² | - |
| 1778026349 | 10° C | 51% | 1007.4 hPa | 0 mm | 0 m/s | 17 W/m² | - |
| 1778026046 | 10° C | 48% | 1007.3 hPa | 0 mm | 0.45 m/s, 148° | 20 W/m² | - |
| 1778025744 | 10.56° C | 49% | 1007.4 hPa | 0 mm | 0 m/s | 21 W/m² | - |
| 1778025441 | 10.56° C | 48% | 1007.4 hPa | 0 mm | 0 m/s | 29 W/m² | - |
| 1778025138 | 10.56° C | 47% | 1007.2 hPa | 0 mm | 0.45 m/s, 175° | 33 W/m² | - |
| 1778024835 | 10.56° C | 47% | 1007.4 hPa | 0 mm | 0.89 m/s, 211° | 34 W/m² | - |
| 1778024532 | 10.56° C | 46% | 1007.3 hPa | 0 mm | 0.89 m/s, 186° | 42 W/m² | - |
| 1778024228 | 10.56° C | 47% | 1007.3 hPa | 0 mm | 0.45 m/s, 206° | 42 W/m² | - |
| 1778023927 | 10.56° C | 47% | 1007.2 hPa | 0 mm | 0 m/s | 50 W/m² | - |
* Rain latest hour (hover to see other rain measurements)
** Current wind speed in m/s (hover to see current wind gust speed)